[[{"header":{"parameterUnit":"m.s-1","parameterCategory":1,"la1":30.2991,"la2":30.254,"lo1":-89.0895,"lo2":-89.0444,"dy":0.0017,"dx":0.0017,"nx":28,"ny":28,"refTime":"2024-02-02T03:00:00:Z","depth":0,"parameterNumber":2,"parameterNumberName":"U-component_of_WINDS"},"data":[0,0,0,0,0,0,0,0,0,0,0,0,0,0,0,0,0,0,0,0,0,0,0,0,0,0,0,0,0,0,0,0,0,0,0,0,0,0,0,0,0,0,0,0,0,0,0,0,0,0,0,0,0,0,0,0,0,0,-0.4641,-0.4641,0,-0.459,-0.459,-0.4589,-0.4517,-0.4516,-0.4515,-0.4514,-0.4463,-0.4463,-0.4463,0,0,0,0,0,0,0,0,0,0,0,0,0,-0.4677,-0.4677,-0.4641,-0.464,-0.464,-0.4591,-0.459,-0.4589,-0.4517,-0.4516,-0.4514,-0.4513,-0.4463,-0.4463,-0.4463,0,0,0,0,0,0,0,0,0,0,0,0,0,-0.4648,-0.4677,-0.4641,-0.4598,-0.4594,-0.4591,-0.459,-0.4589,-0.4518,-0.4516,-0.4514,-0.4512,-0.4463,-0.4463,-0.4463,-0.4498,0,0,-0.4462,-0.4462,0,0,0,0,0,0,0,0,-0.465,-0.4647,-0.4605,-0.4601,-0.4596,-0.4558,-0.4584,-0.4559,-0.4518,-0.4547,-0.4514,-0.4511,-0.4496,-0.4493,-0.4488,-0.4496,-0.4494,-0.4462,-0.4462,-0.4461,-0.4461,0,0,0,0,0,0,0,-0.4652,-0.4648,-0.4621,-0.4605,-0.4599,-0.4582,-0.4576,-0.4579,-0.4533,-0.4544,-0.4539,-0.4534,-0.4493,-0.4488,-0.4486,-0.4493,-0.4462,-0.4461,-0.4461,-0.4461,-0.4529,-0.4531,0,0,0,0,0,0,-0.466,-0.4651,-0.4623,-0.462,-0.4619,-0.4583,-0.4576,-0.4572,-0.4532,-0.4524,-0.4535,-0.453,-0.449,-0.4486,-0.4484,-0.4525,-0.4461,-0.4461,-0.4461,-0.4527,-0.453,-0.4532,0,0,0,0,0,0,-0.4661,-0.4658,-0.4625,-0.4634,-0.4628,-0.4584,-0.4581,-0.4572,-0.4567,-0.4526,-0.4517,-0.4538,-0.4488,-0.4484,-0.4495,-0.4522,-0.4461,-0.4461,-0.4525,-0.4528,-0.4531,-0.4605,0,0,0,0,0,0,-0.4662,-0.4659,-0.4672,-0.4634,-0.4628,-0.4637,-0.4582,-0.4573,-0.4567,-0.456,-0.4526,-0.4519,-0.4486,-0.4496,-0.4495,-0.452,-0.4461,-0.4522,-0.4526,-0.453,-0.46,-0.461,-0.4619,0,0,0,0,0,-0.4664,-0.4694,-0.4673,-0.467,-0.4643,-0.4638,-0.4635,-0.4596,-0.4569,-0.4582,-0.4555,-0.452,-0.4519,-0.4498,-0.4496,-0.4522,-0.4521,-0.4525,-0.453,-0.4596,-0.4608,-0.4619,0,0,0,0,0,0,-0.4736,-0.4689,-0.4664,-0.4683,-0.4665,-0.4626,-0.4641,-0.461,-0.46,-0.4594,-0.4547,-0.454,-0.4558,-0.454,-0.4518,-0.4555,-0.4514,-0.4519,-0.4566,-0.4577,-0.4586,-0.4591,-0.446,0,0,0,0,0,-0.4754,-0.4754,-0.4713,-0.4734,-0.4726,-0.4685,-0.4682,-0.4654,-0.4634,-0.4626,-0.46,-0.4582,-0.4578,-0.4576,-0.457,-0.4597,-0.459,-0.4613,-0.4623,-0.4631,-0.4636,-0.4651,-0.4661,-0.4546,-0.4546,-0.4546,0,0,-0.4792,-0.4766,-0.4769,-0.4748,-0.473,-0.4733,-0.4679,-0.4683,-0.4685,-0.4626,-0.4636,-0.4617,-0.4594,-0.4614,-0.4621,-0.46,-0.4665,-0.4636,-0.4643,-0.4643,-0.4656,-0.4667,-0.4677,-0.4549,-0.4549,-0.4548,0,0,-0.4861,-0.4841,-0.4857,-0.4841,-0.4816,-0.4789,-0.4793,-0.4758,-0.4743,-0.4752,-0.4709,-0.471,-0.4703,-0.4689,-0.4681,-0.4746,-0.4714,-0.4745,-0.4795,-0.481,-0.4819,-0.4827,-0.4852,-0.4862,-0.475,-0.475,-0.475,0,-0.4911,-0.4912,-0.4869,-0.4876,-0.4869,-0.4816,-0.4833,-0.482,-0.4794,-0.4791,-0.4767,-0.4758,-0.4739,-0.4755,-0.4772,-0.4766,-0.4771,-0.475,-0.4821,-0.4829,-0.4835,-0.4859,-0.4868,-0.4754,-0.4754,-0.4753,-0.4753,0,-0.4976,-0.4977,-0.4993,-0.497,-0.4964,-0.4976,-0.4936,-0.4936,-0.4908,-0.4884,-0.4894,-0.4869,-0.4858,-0.4859,-0.4832,-0.4872,-0.486,-0.483,-0.4789,-0.4851,-0.4873,-0.4881,-0.476,-0.4759,-0.4757,-0.4756,0,0,-0.509,-0.5043,-0.505,-0.5039,-0.5008,-0.5009,-0.5019,-0.5007,-0.5009,-0.4993,-0.5001,-0.4997,-0.4968,-0.496,-0.493,-0.4944,-0.5,-0.4911,-0.491,-0.493,-0.5045,-0.507,-0.5081,-0.4977,-0.4979,-0.498,-0.5048,0,-0.5155,-0.5169,-0.5131,-0.5156,-0.5157,-0.5107,-0.5116,-0.5099,-0.5076,-0.5075,-0.505,-0.5049,-0.5011,-0.5005,-0.5016,-0.4991,-0.5022,-0.4985,-0.4986,-0.4987,-0.4996,-0.5092,-0.5117,-0.5182,-0.5055,-0.5057,-0.5058,0,-0.5232,-0.5221,-0.5246,-0.5214,-0.5213,-0.5222,-0.521,-0.5208,-0.5188,-0.5171,-0.5161,-0.5128,-0.5136,-0.5096,-0.5108,-0.5084,-0.5082,-0.507,-0.5071,-0.5071,-0.5028,-0.5096,-0.5202,-0.5213,-0.507,-0.5069,-0.5068,0,-0.5316,-0.5306,-0.532,-0.5312,-0.5276,-0.5283,-0.5268,-0.5246,-0.5242,-0.5231,-0.5228,-0.5218,-0.5213,-0.5207,-0.5172,-0.5145,-0.5189,-0.5145,-0.5177,-0.5178,-0.519,-0.519,-0.5298,-0.5185,-0.5185,-0.5185,-0.5185,0,-0.5393,-0.5411,-0.5357,-0.5366,-0.5385,-0.5341,-0.5361,-0.5341,-0.5322,-0.5327,-0.5282,-0.5288,-0.524,-0.5241,-0.5214,-0.5229,-0.5227,-0.5214,-0.5207,-0.522,-0.5222,-0.5219,-0.5214,-0.5188,-0.5187,-0.5187,-0.5186,0,-0.549,-0.5454,-0.5467,-0.5431,-0.5423,-0.5438,-0.5408,-0.5415,-0.539,-0.5397,-0.5396,-0.5357,-0.5356,-0.532,-0.5311,-0.5292,-0.532,-0.5303,-0.5327,-0.5323,-0.5357,-0.5355,-0.547,-0.5483,-0.536,-0.5361,-0.5362,0,-0.5543,-0.5555,-0.5521,-0.5521,-0.5508,-0.5509,-0.5504,-0.5463,-0.546,-0.5439,-0.5449,-0.5444,-0.5438,-0.5438,-0.541,-0.5403,-0.5387,-0.5428,-0.5386,-0.5399,-0.5391,-0.5391,-0.5393,-0.5437,-0.5439,-0.544,-0.5441,0,-0.564,-0.5623,-0.5618,-0.5608,-0.5605,-0.5595,-0.5582,-0.5585,-0.5539,-0.5539,-0.5537,-0.5533,-0.5524,-0.552,-0.5509,-0.5494,-0.5461,-0.5454,-0.5462,-0.5475,-0.549,-0.5484,-0.5354,-0.5452,-0.5451,-0.545,-0.545,-0.5449,-0.5718,-0.5727,-0.5705,-0.5702,-0.5689,-0.5678,-0.5684,-0.566,-0.5657,-0.5647,-0.5622,-0.5625,-0.5605,-0.5586,-0.5575,-0.5577,-0.5556,-0.5566,-0.5569,-0.5573,-0.5581,-0.5488,-0.5574,-0.5574,-0.5573,-0.5573,-0.5573,0,-0.5815,-0.5799,-0.5796,-0.5781,-0.5779,-0.5747,-0.5732,-0.5733,-0.5736,-0.572,-0.5715,-0.5714,-0.571,-0.5682,-0.5675,-0.5683,-0.5668,-0.5683,-0.5683,-0.568,-0.5598,-0.5593,-0.5695,-0.5695,-0.5695,-0.5695,-0.5695,-0.5695,-0.5866,-0.5881,-0.5861,-0.5869,-0.5852,-0.5854,-0.5849,-0.5839,-0.5827,-0.5828,-0.5825,-0.5806,-0.5785,-0.5777,-0.5773,-0.5765,-0.5765,-0.5786,-0.5773,-0.5697,-0.5686,-0.5675,-0.567,-0.5786,-0.5786,-0.5855,-0.5856,-0.5857]},{"header":{"parameterUnit":"m.s-1","parameterCategory":1,"la1":30.2991,"la2":30.254,"lo1":-89.0895,"lo2":-89.0444,"dy":0.0017,"dx":0.0017,"nx":28,"ny":28,"refTime":"2024-02-02T03:00:00:Z","depth":0,"parameterNumber":3,"parameterNumberName":"V-component_of_WINDS"},"data":[0,0,0,0,0,0,0,0,0,0,0,0,0,0,0,0,0,0,0,0,0,0,0,0,0,0,0,0,0,0,0,0,0,0,0,0,0,0,0,0,0,0,0,0,0,0,0,0,0,0,0,0,0,0,0,0,0,0,-0.7508,-0.7509,0,-0.7555,-0.7555,-0.7556,-0.7538,-0.7537,-0.7536,-0.7535,-0.7584,-0.7586,-0.7588,0,0,0,0,0,0,0,0,0,0,0,0,0,-0.7405,-0.7407,-0.7508,-0.7509,-0.751,-0.7555,-0.7555,-0.7556,-0.7538,-0.7537,-0.7536,-0.7534,-0.7583,-0.7586,-0.7589,0,0,0,0,0,0,0,0,0,0,0,0,0,-0.7451,-0.7408,-0.7508,-0.7506,-0.7506,-0.7554,-0.7555,-0.7556,-0.7538,-0.7537,-0.7535,-0.7534,-0.7582,-0.7586,-0.7589,-0.7643,0,0,-0.76,-0.7601,0,0,0,0,0,0,0,0,-0.7448,-0.7454,-0.7506,-0.7506,-0.7507,-0.7539,-0.7537,-0.7585,-0.7539,-0.7526,-0.7535,-0.7533,-0.757,-0.7575,-0.7587,-0.7645,-0.7647,-0.76,-0.7602,-0.7604,-0.7605,0,0,0,0,0,0,0,-0.7445,-0.7452,-0.7527,-0.7507,-0.7507,-0.7503,-0.7508,-0.7546,-0.7557,-0.7527,-0.7526,-0.7532,-0.757,-0.7584,-0.7588,-0.7648,-0.76,-0.7603,-0.7605,-0.7606,-0.775,-0.7752,0,0,0,0,0,0,-0.7441,-0.745,-0.7525,-0.7528,-0.7473,-0.7506,-0.7511,-0.753,-0.7556,-0.7559,-0.7533,-0.7531,-0.7579,-0.7584,-0.759,-0.7654,-0.7604,-0.7607,-0.7609,-0.7749,-0.7751,-0.7753,0,0,0,0,0,0,-0.7439,-0.7448,-0.7523,-0.7489,-0.7498,-0.7509,-0.7531,-0.7532,-0.7545,-0.7561,-0.7563,-0.7545,-0.7577,-0.7585,-0.7629,-0.7655,-0.7608,-0.7611,-0.7747,-0.7749,-0.7752,-0.7783,0,0,0,0,0,0,-0.7436,-0.7448,-0.7468,-0.7489,-0.75,-0.7562,-0.7532,-0.7534,-0.7551,-0.7549,-0.7572,-0.7575,-0.7577,-0.7624,-0.7633,-0.7659,-0.7614,-0.7744,-0.7748,-0.7751,-0.778,-0.7786,-0.7792,0,0,0,0,0,-0.7433,-0.7476,-0.747,-0.7479,-0.7526,-0.7564,-0.757,-0.7571,-0.7553,-0.7574,-0.7584,-0.7574,-0.765,-0.7629,-0.7638,-0.7666,-0.7743,-0.7747,-0.7751,-0.7777,-0.7785,-0.7792,0,0,0,0,0,0,-0.746,-0.7479,-0.7472,-0.7523,-0.7542,-0.7561,-0.7588,-0.758,-0.7605,-0.7601,-0.7602,-0.7608,-0.7653,-0.7664,-0.7639,-0.7719,-0.7694,-0.77,-0.7711,-0.7718,-0.7724,-0.7722,-0.7617,0,0,0,0,0,-0.7471,-0.75,-0.7515,-0.7559,-0.7569,-0.7576,-0.7593,-0.7592,-0.7612,-0.762,-0.7633,-0.7653,-0.7681,-0.77,-0.7727,-0.778,-0.7785,-0.7804,-0.781,-0.7815,-0.7821,-0.7849,-0.7857,-0.7766,-0.7766,-0.7766,0,0,-0.7496,-0.751,-0.7529,-0.7565,-0.7579,-0.7609,-0.7583,-0.7617,-0.7639,-0.7625,-0.7668,-0.7677,-0.7699,-0.7748,-0.777,-0.7759,-0.7846,-0.782,-0.7824,-0.7827,-0.7854,-0.7862,-0.787,-0.7768,-0.7768,-0.7767,0,0,-0.7557,-0.757,-0.7608,-0.7622,-0.7643,-0.7648,-0.7656,-0.7676,-0.7682,-0.7724,-0.7714,-0.774,-0.7789,-0.7805,-0.782,-0.7883,-0.7875,-0.7892,-0.7925,-0.7952,-0.796,-0.7966,-0.7989,-0.7997,-0.7897,-0.7897,-0.7897,0,-0.7586,-0.763,-0.7628,-0.7662,-0.7678,-0.7664,-0.7702,-0.7716,-0.7746,-0.7758,-0.7743,-0.7803,-0.7817,-0.7869,-0.7885,-0.7896,-0.7907,-0.7891,-0.7959,-0.7965,-0.7971,-0.7993,-0.8002,-0.7899,-0.7899,-0.7899,-0.7899,0,-0.7664,-0.7695,-0.7723,-0.775,-0.7769,-0.7805,-0.7808,-0.7827,-0.7823,-0.7829,-0.7872,-0.7887,-0.7917,-0.7929,-0.7926,-0.798,-0.7972,-0.7958,-0.7934,-0.7982,-0.8003,-0.8011,-0.7902,-0.7901,-0.7901,-0.79,0,0,-0.7747,-0.777,-0.7781,-0.7792,-0.7814,-0.7838,-0.7872,-0.79,-0.7916,-0.7936,-0.7965,-0.8005,-0.7992,-0.8008,-0.8007,-0.8031,-0.808,-0.8014,-0.8014,-0.8026,-0.814,-0.8152,-0.8162,-0.8073,-0.8075,-0.8076,-0.8139,0,-0.781,-0.787,-0.7868,-0.7924,-0.7952,-0.7938,-0.7968,-0.7984,-0.799,-0.8014,-0.802,-0.8049,-0.8029,-0.8039,-0.8061,-0.8069,-0.8103,-0.8064,-0.8101,-0.8103,-0.8098,-0.8173,-0.8185,-0.8244,-0.8147,-0.8148,-0.8149,0,-0.7893,-0.7914,-0.7973,-0.7988,-0.8,-0.8027,-0.8051,-0.8075,-0.8092,-0.8094,-0.8111,-0.8105,-0.8139,-0.8112,-0.8159,-0.8133,-0.8147,-0.8153,-0.8155,-0.8161,-0.8131,-0.8181,-0.8262,-0.8272,-0.8162,-0.8161,-0.816,0,-0.7948,-0.7991,-0.8032,-0.8042,-0.8061,-0.808,-0.8089,-0.8104,-0.812,-0.8141,-0.8152,-0.8177,-0.8191,-0.821,-0.8211,-0.8191,-0.8259,-0.8231,-0.8262,-0.8262,-0.8279,-0.8279,-0.8366,-0.8285,-0.8285,-0.8285,-0.8285,0,-0.8021,-0.8057,-0.8057,-0.8082,-0.8122,-0.8118,-0.8158,-0.8165,-0.8178,-0.8204,-0.8193,-0.8218,-0.8216,-0.8241,-0.8241,-0.8281,-0.8287,-0.829,-0.829,-0.8292,-0.8292,-0.8303,-0.83,-0.8287,-0.8287,-0.8287,-0.8286,0,-0.8091,-0.8091,-0.8135,-0.8148,-0.8152,-0.8181,-0.8192,-0.8216,-0.8219,-0.8252,-0.8259,-0.8264,-0.8293,-0.8294,-0.8327,-0.8327,-0.8375,-0.837,-0.837,-0.8369,-0.84,-0.8398,-0.8499,-0.8512,-0.8422,-0.8423,-0.8424,0,-0.8138,-0.8165,-0.818,-0.8197,-0.8206,-0.8232,-0.8248,-0.8244,-0.8262,-0.8282,-0.8303,-0.833,-0.8352,-0.8398,-0.8404,-0.8429,-0.8425,-0.8459,-0.8429,-0.843,-0.8427,-0.8427,-0.8429,-0.8466,-0.8467,-0.8468,-0.8468,0,-0.8221,-0.822,-0.8243,-0.8266,-0.8284,-0.8302,-0.8319,-0.8333,-0.8331,-0.835,-0.8379,-0.8395,-0.8428,-0.8455,-0.8478,-0.8487,-0.8478,-0.8477,-0.8485,-0.8489,-0.8488,-0.849,-0.8387,-0.8475,-0.8475,-0.8474,-0.8474,-0.8473,-0.8282,-0.8306,-0.832,-0.8346,-0.8357,-0.8372,-0.8395,-0.8399,-0.8423,-0.8449,-0.8444,-0.8476,-0.849,-0.8521,-0.8531,-0.8556,-0.8545,-0.8557,-0.856,-0.8564,-0.8568,-0.8482,-0.856,-0.856,-0.856,-0.8559,-0.8559,0,-0.8367,-0.8374,-0.8397,-0.842,-0.844,-0.8427,-0.8444,-0.8462,-0.8489,-0.8503,-0.8524,-0.8556,-0.8581,-0.8589,-0.8613,-0.8631,-0.8627,-0.8638,-0.8638,-0.864,-0.8576,-0.8567,-0.8641,-0.8641,-0.8641,-0.8641,-0.8641,-0.864,-0.8413,-0.8452,-0.8452,-0.8496,-0.8503,-0.8533,-0.8544,-0.8557,-0.8568,-0.8604,-0.8625,-0.8629,-0.864,-0.8665,-0.8687,-0.8689,-0.8699,-0.8712,-0.8712,-0.8653,-0.8644,-0.8637,-0.8628,-0.8714,-0.8714,-0.8773,-0.8774,-0.8774]}]]